Кондратьево

Россия / Иркутская область     57°21′04″N   98°11′07″E
темп.,
°C
ветер,
м/с
пор.,
м/с
влажн.,
%
обл.,
%
осадки,
мм/ч
давл.,
гПа
погр.,
м
11 мая, вт
вт1123:00+8ссз11625 0.0 101910
02:00+6ссв117016 0.0 102010
05:00+4ссз117714 0.0 102010
08:00+9ссв116330 0.0 1019178
11:00+13сз124774 0.0 1018611
14:00+16с343398 0.0 10172322
17:00+14ссв664696 0.1 10171675
20:00+8св576456 0.1 1020947
12 мая, ср
ср1223:00+3ссв26755 0.0 1021164
02:00+1ссв29825 0.0 1021263
05:000св26815 0.0 1022154
08:00+4св25590 0.0 1022493
11:00+8св34375 0.0 10211742
14:00+11ссв342975 0.0 10192360
17:00+12ссв3427100 0.0 10182588
20:00+10ссв363594 0.0 1018394
13 мая, чт
чт1323:00+4всв11551 0.0 101910
02:00+2в11605 0.0 102010
05:000всв11651 0.0 102010
08:00+6в12485 0.0 1020220
11:00+11вюв12324 0.0 10191781
14:00+15юв11265 0.0 10182128
17:00+15ю11240 0.0 10162149
20:00+12ю11350 0.0 101621
14 мая, пт
пт1423:00+6юв22460 0.0 101610
02:00+4ююв22580 0.0 101619
05:00+2юв226099 0.0 101517
08:00+7ююв3843100 0.0 1013300
11:00+12ю453199 0.0 1011981
14:00+16юз452592 0.0 10091867
17:00+17зюз5832100 0.0 10072525
20:00+9зсз4981100 0.5 1010777
15 мая, сб
сб1523:00+6зюз398832 0.0 1011290
02:00+6з498299 0.1 1013935
05:00+2з41083100 0.1 1014610
08:00+4зюз51172100 0.1 10141060
11:00+3юз51496100 2.4 1011925
14:00+4зюз51397100 4.2 10091025
17:00+7зсз6158386 0.5 10091428
20:00+7сз513728 1.1 10131455